Regional Weather Roundup
Issued by NWS

Home | Current Version | Previous Version | Graphics & Text | Print | Product List | Glossary On
Versions: 1 2 3 4 5 6 7 8 9 10 11 12 13 14 15 16 17 18 19 20 21 22 23 24 25 26 27 28 29 30 31 32 33 34 35 36 37 38 39 40 41 42 43 44 45 46 47 48 49 50
000
ASUS45 KBOU 230707
RWRCO

WEATHER ROUNDUP FOR COLORADO
NATIONAL WEATHER SERVICE DENVER/BOULDER CO
100 AM MDT TUE SEP 23 2014

NOTE: "FAIR" INDICATES FEW OR NO CLOUDS BELOW 12000 FEET WITH NO
SIGNIFICANT WEATHER AND/OR OBSTRUCTIONS TO VISIBILITY.

COZ001>005-013-030-031-230800-
...NORTHWEST COLORADO...

CITY           SKY/WX    TMP DP  RH WIND       PRES   REMARKS
CRAIG          CLOUDY    53  49  86 SE3       30.23F
HAYDEN         MOCLDY    55  45  67 CALM      30.25S
MEEKER         CLOUDY    54  49  83 NE6       30.26F
MOUNT WERNER   NOT AVBL
STEAMBOAT SPGS CLOUDY    52  48  86 CALM      30.27S
WALDEN         PTCLDY    45  41  87 E3        30.31S
$$

COZ006>008-011-230800-
...WEST CENTRAL VALLEYS...

CITY           SKY/WX    TMP DP  RH WIND       PRES   REMARKS
GRAND JUNCTION CLOUDY    61  53  75 SE5       30.15F
MONTROSE       CLOUDY    59  51  75 SE8       30.25S
EAGLE          CLOUDY    55  52  88 S5        30.30R
RIFLE          CLOUDY    58  51  78 SW3       30.22S
DELTA          CLOUDY    63  55  75 NE3       30.21S
NUCLA          MOCLDY    57  45  62 E8        30.28S
$$

COZ017>023-064>068-230800-
...SOUTHWEST COLORADO...

CITY           SKY/WX    TMP DP  RH WIND       PRES   REMARKS
DURANGO        CLEAR     50  47  89 E5        30.31R
CORTEZ         CLEAR     51  47  86 E6        30.26S
PAGOSA SPRINGS CLEAR     50  49  95 CALM      30.38S
TELLURIDE      NOT AVBL
WOLF CREEK PAS CLEAR     37  32  81 SW21      30.59S
$$

COZ009-010-012-014-032>034-037-058>063-230800-
...CENTRAL COLORADO...

CITY           SKY/WX    TMP DP  RH WIND       PRES   REMARKS
ASPEN          CLOUDY    49  45  86 SW5       30.34S
BUENA VISTA    CLEAR     52  42  69 CALM      30.33R
COPPER MTN     MOCLDY    45  34  65 SW8       30.55F
BERTHOUD PASS  CLOUDY    34  32  93 NW31G40   30.54S FOG     WCI  20
COTTONWOOD PAS CLOUDY    54  37  54 CALM      30.43S
GUNNISON       PTCLDY    48  43  81 CALM      30.37S
KREMMLING      CLOUDY    54  45  71 CALM      30.31F
LEADVILLE      PTCLDY    47  37  68 N8        30.43F
MONARCH PASS   FOG       39  37  93 W30G38    30.65R VSB<1/4
SALIDA         CLEAR     57  44  61 W5        30.37S
SUNLIGHT       CLOUDY    45  43  93 CALM      30.51F
WILKERSON PASS NOT AVBL
$$

COZ069>075-230800-
...SAN LUIS VALLEY/SANGRE DE CRISTO MOUNTAINS...

CITY           SKY/WX    TMP DP  RH WIND       PRES   REMARKS
ALAMOSA        CLEAR     44  39  82 S8        30.33S
LA VETA PASS   CLOUDY    46  45  93 S10G23    30.46R
SAGUACHE       CLEAR     52  45  76 N8        30.35S
$$

COZ035-036-038>040-230800-
...NORTHERN COLORADO FRONT RANGE...

CITY           SKY/WX    TMP DP  RH WIND       PRES   REMARKS
DENVER INTL AP PTCLDY    54  48  80 SE12      30.14S
DMNS CITY PARK   N/A     60  49  68 S3        30.14S
AURORA         PTCLDY    55  49  80 SE12      30.17S
FRONT RANGE AP CLEAR     54  50  87 S7        30.16S
ERIE MUNI ARPT NOT AVBL
BOULDER MUN AP MOCLDY    63  45  51 CALM      30.13S
CENTENNIAL     PTCLDY    57  51  80 SE12      30.18R
BROOMFIELD     MOCLDY    61  50  67 S3        30.16R
FORT COLLINS   PTCLDY    57  46  67 S9        30.12S
LONGMONT       CLOUDY    59  46  62 CALM      30.14S
$$

COZ041-046-047-076>085-087-088-230800-
...PIKES PEAK/PALMER DIVIDE AND SOUTHERN FOOTHILLS...

CITY           SKY/WX    TMP DP  RH WIND       PRES   REMARKS
COLO. SPRINGS  CLEAR     58  49  72 N6        30.20S
A. F. ACADEMY  CLEAR     50  47  88 N7        30.22S
ELLICOTT       NOT AVBL
FALCON         CLEAR     56  43  60 N5        30.25S
FORT CARSON    CLEAR     57  49  75 N13       30.17S
LIMON          PTCLDY    55  53  93 NW5       30.16R
MONUMENT HILL  PTCLDY    48  43  81 S8        30.24R
TRINIDAD       CLEAR     63  55  75 SW21      30.17F
$$

COZ042>045-048>051-090-091-230800-
...NORTHEAST COLORADO...

CITY           SKY/WX    TMP DP  RH WIND       PRES   REMARKS
GREELEY ARPT   MOCLDY    55  45  67 S3        30.11S
AKRON          CLOUDY    59  57  93 W12       30.08F
BURLINGTON     CLOUDY    58  56  93 SE9       30.11R
WRAY           CLOUDY   N/A N/A N/A CALM      30.07R
STERLING       MOCLDY    61  57  88 S3        30.05F
HOLYOKE        CLOUDY    59  55  88 S5        30.06F
FORT MORGAN    MOCLDY    55  53  93 N6        30.09S
$$

COZ086-089-092>099-230800-
...SOUTHEAST COLORADO...

CITY           SKY/WX    TMP DP  RH WIND       PRES   REMARKS
PUEBLO         CLEAR     62  51  67 N8        30.11R
LA JUNTA       PTCLDY    64  57  78 W8        30.08R
LAMAR          PTCLDY    64  58  80 CALM      30.05R
SPRINGFIELD      N/A     64  59  83 S20G30    30.12S
$$



USA.gov is the U.S. government's official web portal to all federal, state and local government web resources and services.